CW9861 Weather Reports


time (UTC)temp
F
wind
direction
speed
knots
gust
knots
rain 1hr
in
rain 24hr
in
rain mn
in
humidity
%
barometer
mb
20260507094958 35 276 0.0 0.0 0.00 0.00 0.00 77 1011.0
20260507094456 35 276 0.0 0.0 0.00 0.00 0.00 77 1011.0
20260507093958 35 276 0.0 0.0 0.00 0.00 0.00 77 1011.0
20260507093456 35 276 0.0 0.0 0.00 0.00 0.00 76 1011.0
20260507092956 36 276 0.0 0.0 0.00 0.00 0.00 76 1011.1
20260507092457 36 276 0.0 0.0 0.00 0.00 0.00 76 1011.1
20260507091957 36 276 0.0 0.0 0.00 0.00 0.00 75 1011.1
20260507091457 36 276 0.0 0.0 0.00 0.00 0.00 75 1011.1
20260507090957 36 276 0.0 0.0 0.00 0.00 0.00 74 1011.2
20260507090456 37 276 0.0 0.0 0.00 0.00 0.00 74 1011.3
20260507085956 37 276 0.0 0.9 0.00 0.00 0.00 74 1011.2
20260507085457 37 276 0.0 0.9 0.00 0.00 0.00 74 1011.2
20260507084956 37 276 0.0 0.9 0.00 0.00 0.00 74 1011.2
20260507084456 37 276 0.0 0.0 0.00 0.00 0.00 74 1011.3
20260507083956 38 276 0.0 0.0 0.00 0.00 0.00 75 1011.3
20260507083456 38 276 0.0 0.0 0.00 0.00 0.00 75 1011.3
20260507082957 38 276 0.0 0.0 0.00 0.00 0.00 74 1011.3
20260507082456 38 276 0.0 0.9 0.00 0.00 0.00 74 1011.3
20260507081957 38 276 0.0 0.9 0.00 0.00 0.00 73 1011.3
20260507073957 40 276 0.0 0.9 0.00 0.00 0.00 69 1011.5
20260507073456 40 276 0.0 0.9 0.00 0.00 0.00 68 1011.4
20260507072957 40 276 0.0 1.7 0.00 0.00 0.00 68 1011.4
20260507072456 41 313 0.9 1.7 0.00 0.00 0.00 68 1011.4
20260507071956 41 312 0.0 3.5 0.00 0.00 0.00 69 1011.3
20260507071456 41 312 0.0 3.5 0.00 0.00 0.00 69 1011.4
20260507070956 41 313 1.7 4.3 0.00 0.00 0.00 69 1011.5
20260507063456 41 280 0.9 3.5 0.00 0.00 0.00 71 1011.6
20260507062956 40 305 1.7 3.5 0.00 0.00 0.00 71 1011.5
20260507062456 40 308 0.9 3.5 0.00 0.00 0.00 72 1011.6
20260507061956 40 315 0.9 1.7 0.00 0.00 0.00 73 1011.6
20260507061457 40 299 0.0 1.7 0.00 0.00 0.00 73 1011.6
20260507060956 40 299 0.0 1.7 0.00 0.00 0.00 73 1011.6
20260507060457 40 299 0.0 1.7 0.00 0.00 0.00 73 1011.6
20260507055957 40 299 0.0 0.0 0.00 0.00 0.00 73 1011.7
20260507055456 40 299 0.0 0.0 0.00 0.00 0.00 72 1011.6
20260507054957 40 299 0.0 0.0 0.00 0.00 0.00 72 1011.6
20260507054457 40 299 0.0 0.0 0.00 0.00 0.00 72 1011.6
20260507053956 40 299 0.0 0.0 0.00 0.00 0.00 72 1011.7
20260507053457 40 299 0.0 0.0 0.00 0.00 0.00 72 1011.6
20260507052957 40 299 0.0 0.0 0.00 0.00 0.00 71 1011.6
20260507052456 40 299 0.0 0.0 0.00 0.00 0.00 70 1011.7
20260507051956 40 299 0.0 0.0 0.00 0.00 0.00 70 1011.8
20260507051456 40 299 0.0 0.0 0.00 0.00 0.00 69 1011.8
20260507050956 40 299 0.0 0.0 0.00 0.00 0.00 68 1011.8
20260507050456 40 299 0.0 0.0 0.00 0.00 0.00 67 1011.8
20260507045958 40 299 0.0 0.0 0.00 0.00 0.00 67 1011.8
20260507045457 41 299 0.0 0.0 0.00 0.00 0.00 66 1011.8
20260507044957 41 299 0.0 0.0 0.00 0.00 0.00 64 1011.7
20260507044457 41 299 0.0 0.0 0.00 0.00 0.00 63 1011.7
20260507043958 41 299 0.0 0.0 0.00 0.00 0.00 62 1011.7
20260507043458 41 299 0.0 0.0 0.00 0.00 0.00 60 1011.8
20260507042958 42 299 0.0 0.0 0.00 0.00 0.00 59 1011.8
20260507042457 42 299 0.0 0.0 0.00 0.00 0.00 58 1011.8
20260507031957 45 309 0.0 1.7 0.00 0.00 0.00 56 1012.0
20260507031457 46 309 0.0 1.7 0.00 0.00 0.00 56 1012.0
20260507030957 46 305 0.9 1.7 0.00 0.00 0.00 55 1012.0
20260507030457 46 297 0.0 1.7 0.00 0.00 0.00 55 1012.0
20260507025959 46 297 0.0 1.7 0.00 0.00 0.00 55 1012.0
20260507025457 46 295 0.0 1.7 0.00 0.00 0.00 55 1012.0
20260507024957 46 290 0.0 3.5 0.00 0.00 0.00 55 1012.0
20260507024457 46 290 0.9 3.5 0.00 0.00 0.00 54 1012.0
20260507023957 47 284 0.0 2.6 0.00 0.00 0.00 54 1012.0
20260507023457 47 309 0.9 2.6 0.00 0.00 0.00 54 1011.9
20260507022957 47 322 0.9 2.6 0.00 0.00 0.00 54 1012.0
20260507022457 47 295 0.9 1.7 0.00 0.00 0.00 54 1011.9
20260507021957 47 297 0.0 1.7 0.00 0.00 0.00 54 1011.9
20260507021457 47 290 0.0 1.7 0.00 0.00 0.00 54 1011.9
20260507020957 47 244 0.9 1.7 0.00 0.00 0.00 53 1011.8
20260507020457 48 266 0.9 2.6 0.00 0.00 0.00 53 1011.7
20260507015957 48 305 0.9 2.6 0.00 0.00 0.00 53 1011.8
20260507015457 48 308 0.0 1.7 0.00 0.00 0.00 52 1011.7
20260507014958 48 307 0.9 2.6 0.00 0.00 0.00 52 1011.7
20260507014457 48 318 0.9 2.6 0.00 0.00 0.00 52 1011.6
20260507013958 48 308 0.0 2.6 0.00 0.00 0.00 52 1011.7
20260507013456 48 257 0.9 3.5 0.00 0.00 0.00 52 1011.6
20260507012958 48 306 0.9 4.3 0.00 0.00 0.00 51 1011.6
20260507012457 48 326 0.9 4.3 0.00 0.00 0.00 51 1011.6
20260507011956 49 271 0.9 1.7 0.00 0.00 0.00 50 1011.5
20260507011457 49 261 0.0 2.6 0.00 0.00 0.00 50 1011.5
20260507010957 49 297 0.9 3.5 0.00 0.00 0.00 50 1011.5
20260507010458 49 307 1.7 3.5 0.00 0.00 0.00 50 1011.5
20260507005957 49 309 1.7 3.5 0.00 0.00 0.00 49 1011.5
20260507005457 49 315 0.9 3.5 0.00 0.00 0.00 49 1011.5
20260507004956 49 293 0.9 4.3 0.00 0.00 0.00 50 1011.5
20260507004457 49 310 0.9 4.3 0.00 0.00 0.00 50 1011.4
20260507003956 50 258 0.9 2.6 0.00 0.00 0.00 50 1011.5
20260507003456 50 299 0.9 5.2 0.00 0.00 0.00 49 1011.4
20260507002957 50 301 1.7 6.1 0.00 0.00 0.00 48 1011.3
20260507002457 50 261 2.6 8.7 0.00 0.00 0.00 48 1011.3
20260507001956 50 240 0.9 4.3 0.00 0.00 0.00 49 1011.1
20260507001457 50 282 0.9 3.5 0.00 0.00 0.00 49 1011.0
20260507000957 50 329 1.7 5.2 0.00 0.00 0.00 48 1011.0
20260507000458 50 219 1.7 5.2 0.00 0.00 0.00 48 1011.0
20260506235956 50 266 2.6 5.2 0.00 0.00 0.00 48 1011.0
20260506235457 50 320 1.7 5.2 0.00 0.00 0.00 48 1011.0
20260506234958 51 215 1.7 4.3 0.00 0.00 0.00 47 1010.9
20260506234456 51 325 1.7 4.3 0.00 0.00 0.00 47 1011.0
20260506233956 51 282 1.7 7.8 0.00 0.00 0.00 47 1011.0
20260506233457 51 288 2.6 6.1 0.00 0.00 0.00 47 1011.0
20260506232957 51 299 1.7 6.1 0.00 0.00 0.00 47 1011.0
20260506232457 51 295 1.7 4.3 0.00 0.00 0.00 47 1010.9
20260506231957 51 271 1.7 4.3 0.00 0.00 0.00 48 1010.9
20260506231457 51 297 0.9 6.1 0.00 0.00 0.00 48 1010.7
20260506230957 51 326 1.7 5.2 0.00 0.00 0.00 47 1010.8
20260506230457 51 320 0.9 7.0 0.00 0.00 0.00 46 1010.7
20260506225959 51 271 3.5 10.4 0.00 0.00 0.00 45 1010.7
20260506225458 52 225 4.3 10.4 0.00 0.00 0.00 44 1010.8
20260506224958 53 287 2.6 9.6 0.00 0.00 0.00 44 1010.7
20260506224457 53 340 2.6 9.6 0.00 0.00 0.00 42 1010.7
20260506223958 54 307 2.6 7.8 0.00 0.00 0.00 45 1010.9
20260506223458 52 295 3.5 7.8 0.00 0.00 0.00 45 1010.9
20260506222958 52 300 2.6 9.6 0.00 0.00 0.00 44 1010.8
20260506222459 52 212 3.5 9.6 0.00 0.00 0.00 43 1010.9
20260506221958 54 249 2.6 11.3 0.00 0.00 0.00 42 1010.8
20260506221458 56 313 4.3 11.3 0.00 0.00 0.00 42 1010.9
20260506220958 56 288 3.5 7.8 0.00 0.00 0.00 41 1010.8
20260506220458 53 226 2.6 7.8 0.00 0.00 0.00 44 1010.8
20260506215959 54 307 2.6 7.8 0.00 0.00 0.00 42 1010.7
20260506215457 54 326 2.6 9.6 0.00 0.00 0.00 44 1010.8
20260506214957 54 330 4.3 9.6 0.00 0.00 0.00 41 1010.8
20260506214457 53 266 1.7 9.6 0.00 0.00 0.00 44 1010.9
20260506213957 53 223 4.3 10.4 0.00 0.00 0.00 43 1010.7
20260506213457 54 271 4.3 10.4 0.00 0.00 0.00 42 1010.8
20260506212957 53 280 1.7 7.8 0.00 0.00 0.00 44 1010.7
20260506212457 53 341 2.6 12.2 0.00 0.00 0.00 43 1010.7
20260506211957 53 320 3.5 12.2 0.00 0.00 0.00 41 1010.7
20260506211457 54 283 2.6 9.6 0.00 0.00 0.00 41 1010.5
20260506210957 55 334 2.6 5.2 0.00 0.00 0.00 40 1010.6
20260506210457 54 302 3.5 7.0 0.00 0.00 0.00 42 1010.6
20260506205958 53 340 3.5 7.8 0.00 0.00 0.00 42 1010.9
20260506201958 54 271 3.5 9.6 0.00 0.00 0.00 44 1010.9
20260506201458 53 324 4.3 9.6 0.00 0.00 0.00 42 1010.9
20260506200958 54 349 1.7 8.7 0.00 0.00 0.00 43 1011.0
20260506200457 54 238 3.5 11.3 0.00 0.00 0.00 42 1010.9
20260506195957 54 245 4.3 12.2 0.00 0.00 0.00 42 1010.9
20260506195456 55 271 3.5 12.2 0.00 0.00 0.00 43 1011.0
20260506194957 53 334 3.5 9.6 0.00 0.00 0.00 43 1011.2
20260506194456 54 266 2.6 10.4 0.00 0.00 0.00 43 1011.1
20260506193957 53 305 1.7 10.4 0.00 0.00 0.00 44 1011.0
20260506193457 53 212 3.5 10.4 0.00 0.00 0.00 43 1011.0
20260506192956 54 194 2.6 9.6 0.00 0.00 0.00 43 1011.0
20260506192457 54 318 3.5 7.8 0.00 0.00 0.00 43 1011.1
20260506191956 55 290 3.5 8.7 0.00 0.00 0.00 45 1011.0
20260506191457 53 252 3.5 9.6 0.00 0.00 0.00 43 1010.9
20260506190956 54 290 3.5 9.6 0.00 0.00 0.00 45 1011.1
20260506190457 54 321 2.6 7.8 0.00 0.00 0.00 44 1011.1
20260506185957 54 305 1.7 6.1 0.00 0.00 0.00 44 1011.0
20260506185457 54 296 2.6 11.3 0.00 0.00 0.00 42 1011.2
20260506184956 54 242 5.2 10.4 0.00 0.00 0.00 43 1011.1
20260506184457 54 276 2.6 7.0 0.00 0.00 0.00 43 1011.1
20260506183956 55 240 2.6 7.8 0.00 0.00 0.00 42 1010.9
20260506183457 57 234 3.5 13.0 0.00 0.00 0.00 42 1011.1
20260506182958 56 214 5.2 13.0 0.00 0.00 0.00 44 1011.0
20260506182457 55 297 3.5 10.4 0.00 0.00 0.00 44 1011.1
20260506181957 53 207 2.6 7.8 0.00 0.00 0.00 44 1011.0
20260506181457 52 276 2.6 8.7 0.00 0.00 0.00 44 1011.1
20260506180956 53 308 3.5 8.7 0.00 0.00 0.00 43 1011.0
20260506180457 53 296 3.5 7.0 0.00 0.00 0.00 47 1011.1
20260506175959 52 301 2.6 5.2 0.00 0.00 0.00 46 1011.0
20260506175458 52 276 1.7 7.8 0.00 0.00 0.00 48 1011.0
20260506174957 52 257 2.6 7.8 0.00 0.00 0.00 48 1011.0
20260506174458 52 310 1.7 10.4 0.00 0.00 0.00 47 1011.1
20260506173958 52 291 3.5 7.8 0.00 0.00 0.00 46 1011.3
20260506173458 52 307 2.6 4.3 0.00 0.00 0.00 46 1011.3
20260506172958 52 294 1.7 5.2 0.00 0.00 0.00 47 1011.3
20260506172458 52 309 2.6 7.0 0.00 0.00 0.00 48 1011.3
20260506171959 52 240 3.5 7.0 0.00 0.00 0.00 46 1011.4
20260506171457 51 232 1.7 7.0 0.00 0.00 0.00 47 1011.5
20260506170958 52 295 2.6 5.2 0.00 0.00 0.00 46 1011.5
20260506170458 52 299 2.6 7.8 0.00 0.00 0.00 47 1011.5
20260506165958 52 297 2.6 4.3 0.00 0.00 0.00 46 1011.5
20260506165457 52 290 1.7 5.2 0.00 0.00 0.00 47 1011.4
20260506164957 52 242 1.7 5.2 0.00 0.00 0.00 45 1011.4
20260506145958 51 297 2.6 5.2 0.00 0.00 0.00 50 1011.6
20260506145457 52 295 0.9 3.5 0.00 0.00 0.00 48 1011.6
20260506144957 51 306 1.7 3.5 0.00 0.00 0.00 50 1011.5
20260506144458 49 134 1.7 3.5 0.00 0.00 0.00 48 1011.5
20260506143958 50 55 1.7 4.3 0.00 0.00 0.00 53 1011.2
20260506143457 49 101 0.9 2.6 0.00 0.00 0.00 57 1011.3
20260506135457 47 105 0.9 4.3 0.00 0.00 0.00 67 1011.3
20260506134957 47 61 1.7 4.3 0.00 0.00 0.00 66 1011.2
20260506134457 46 132 1.7 4.3 0.00 0.00 0.00 68 1011.1
20260506133957 46 68 2.6 4.3 0.00 0.00 0.00 67 1011.0
20260506133458 46 91 0.9 3.5 0.00 0.00 0.00 69 1011.0
20260506132957 45 316 0.9 5.2 0.00 0.00 0.00 68 1011.1
20260506132458 45 338 0.9 4.3 0.00 0.00 0.00 69 1011.0
20260506131957 45 95 1.7 4.3 0.00 0.00 0.00 69 1011.0
20260506131457 44 73 2.6 4.3 0.00 0.00 0.00 69 1011.1
20260506130958 44 45 1.7 4.3 0.00 0.00 0.00 70 1011.2
20260506130457 43 29 0.9 4.3 0.00 0.00 0.00 70 1011.3
20260506125957 43 77 1.7 4.3 0.00 0.00 0.00 71 1011.3
20260506125457 43 76 1.7 4.3 0.00 0.00 0.00 71 1011.2
20260506121956 38 83 1.7 3.5 0.00 0.00 0.00 80 1010.9
20260506121456 37 351 0.0 3.5 0.00 0.00 0.00 81 1010.8
20260506120957 37 49 0.9 4.3 0.00 0.00 0.00 81 1010.7
20260506120456 36 73 0.9 4.3 0.00 0.00 0.00 82 1010.6
20260506115957 36 67 1.7 3.5 0.00 0.00 0.00 82 1010.6
20260506115457 35 15 0.9 2.6 0.00 0.00 0.00 82 1010.4
20260506114957 35 41 0.0 1.7 0.00 0.00 0.00 81 1010.3
20260506114457 35 309 0.0 1.7 0.00 0.00 0.00 81 1010.2
20260506113957 35 309 0.0 1.7 0.00 0.00 0.00 81 1010.1
20260506113457 34 309 0.0 1.7 0.00 0.00 0.00 81 1009.9
20260506112959 34 313 0.0 0.9 0.00 0.00 0.00 80 1009.8
20260506112457 34 311 0.0 0.9 0.00 0.00 0.00 80 1009.9
20260506111956 34 316 0.0 0.9 0.00 0.00 0.00 79 1009.8
20260506111456 34 305 0.0 0.0 0.00 0.00 0.00 79 1009.6
20260506110956 34 305 0.0 1.7 0.00 0.00 0.00 79 1009.6
20260506110457 34 305 0.0 1.7 0.00 0.00 0.00 78 1009.6
20260506105957 34 291 0.0 0.9 0.00 0.00 0.00 78 1009.7
20260506105457 35 291 0.0 0.9 0.00 0.00 0.00 78 1009.8
20260506104956 35 291 0.0 1.7 0.00 0.00 0.00 78 1009.7
20260506104456 35 291 0.0 1.7 0.00 0.00 0.00 78 1009.7
20260506100458 36 311 0.0 0.9 0.00 0.00 0.00 75 1009.3
20260506095956 36 311 0.0 1.7 0.00 0.00 0.00 75 1009.2